Location: Les Chemineaux
(47.3024°N, 1.5104°E)
Time: 19:14:37
(UTC+00:00)

Cosmos 2278 - Pass Details

Date: 19 May 2025
Orbit: 839 x 850 km, 71.1° (Epoch: 23 June)

Event Time Altitude Azimuth Distance (km) Brightness Sun altitude
Rises 23:07:02 0° 332° (NNW) 3,404 8.1 -22.0°
Reaches altitude 10° 23:09:29 10° 332° (NNW) 2,465 7.1 -22.1°
Maximum altitude 23:15:10 88° 243° (WSW) 847 3.6 -22.2°
Enters shadow 23:16:46 49° 157° (SSE) 1,074 3.8 -22.3°
